| time (UTC) | temp C | wind direction | speed KPH | gust KPH | rain 1hr cm | rain 24hr cm | rain mn cm | humidity % | barometer mb |
| 20260906002824 | 25 | 2 | 1.6 | 4.8 | 0.00 | 0.03 | 0.03 | 91 | 1014.7 |
| 20260906002321 | 25 | 262 | 0.0 | 0.0 | 0.00 | 0.03 | 0.03 | 91 | 1014.5 |
| 20260906001818 | 25 | 262 | 0.0 | 0.0 | 0.00 | 0.03 | 0.03 | 91 | 1014.5 |
| 20260906001545 | 24 | 262 | 0.0 | 1.6 | 0.00 | 0.03 | 0.03 | 91 | 1014.4 |
| 20260906001338 | 25 | 262 | 0.0 | 1.6 | 0.00 | 0.03 | 0.03 | 91 | 1014.6 |
| 20260906000856 | 25 | 201 | 0.0 | 0.0 | 0.00 | 0.03 | 0.03 | 91 | 1014.6 |
| 20260906000348 | 25 | 200 | 0.0 | 0.0 | 0.00 | 0.03 | 0.03 | 91 | 1014.5 |
| 20260906000046 | 24 | 148 | 0.0 | 0.0 | 0.00 | 0.03 | 0.03 | 91 | 1014.2 |
| 20260905235823 | 25 | 148 | 0.0 | 1.6 | 0.00 | 0.03 | 0.03 | 91 | 1014.3 |
| 20260905235321 | 25 | 148 | 0.0 | 1.6 | 0.00 | 0.03 | 0.03 | 91 | 1014.4 |
| 20260905234819 | 25 | 136 | 0.0 | 1.6 | 0.00 | 0.03 | 0.03 | 91 | 1014.6 |
| 20260905234537 | 24 | 354 | 0.0 | 0.0 | 0.00 | 0.03 | 0.03 | 91 | 1014.4 |
| 20260905234317 | 25 | 354 | 0.0 | 0.0 | 0.00 | 0.03 | 0.03 | 91 | 1014.3 |
| 20260905233833 | 25 | 354 | 0.0 | 0.0 | 0.00 | 0.03 | 0.03 | 91 | 1014.4 |
| 20260905233328 | 25 | 354 | 0.0 | 0.0 | 0.00 | 0.03 | 0.03 | 91 | 1014.4 |
| 20260905233017 | 25 | 11 | 0.0 | 0.0 | 0.00 | 0.03 | 0.03 | 91 | 1014.4 |
| 20260905232826 | 25 | 27 | 0.0 | 0.0 | 0.00 | 0.03 | 0.03 | 91 | 1014.5 |
| 20260905232323 | 25 | 27 | 0.0 | 0.0 | 0.00 | 0.03 | 0.03 | 91 | 1014.4 |
| 20260905231821 | 25 | 27 | 0.0 | 0.0 | 0.00 | 0.03 | 0.03 | 91 | 1014.2 |
| 20260905231509 | 24 | 27 | 0.0 | 0.0 | 0.00 | 0.03 | 0.03 | 91 | 1014.1 |
| 20260905231319 | 25 | 27 | 0.0 | 0.0 | 0.00 | 0.03 | 0.03 | 91 | 1014.2 |
| 20260905230816 | 25 | 27 | 0.0 | 0.0 | 0.00 | 0.03 | 0.03 | 91 | 1014.2 |
| 20260905230334 | 25 | 27 | 0.0 | 0.0 | 0.00 | 0.03 | 0.03 | 90 | 1014.3 |
| 20260905230055 | 24 | 27 | 0.0 | 0.0 | 0.00 | 0.03 | 0.03 | 90 | 1014.3 |
| 20260905225831 | 25 | 27 | 0.0 | 0.0 | 0.00 | 0.08 | 0.03 | 90 | 1014.5 |
| 20260905225328 | 25 | 27 | 0.0 | 0.0 | 0.00 | 0.08 | 0.03 | 90 | 1014.6 |
| 20260905224825 | 25 | 27 | 0.0 | 1.6 | 0.00 | 0.08 | 0.03 | 90 | 1014.7 |
| 20260905224539 | 25 | 123 | 0.0 | 1.6 | 0.00 | 0.08 | 0.03 | 90 | 1014.7 |
| 20260905224342 | 25 | 117 | 0.0 | 1.6 | 0.00 | 0.08 | 0.03 | 90 | 1014.6 |
| 20260905223818 | 25 | 41 | 0.0 | 6.4 | 0.00 | 0.08 | 0.03 | 90 | 1014.5 |
| 20260905223336 | 25 | 147 | 0.0 | 6.4 | 0.00 | 0.08 | 0.03 | 89 | 1014.5 |
| 20260905223055 | 25 | 141 | 0.0 | 4.8 | 0.00 | 0.08 | 0.03 | 89 | 1014.5 |
| 20260905222855 | 25 | 169 | 0.0 | 4.8 | 0.00 | 0.08 | 0.03 | 89 | 1014.6 |
| 20260905222350 | 25 | 297 | 1.6 | 6.4 | 0.00 | 0.08 | 0.03 | 89 | 1014.6 |
| 20260905221827 | 26 | 209 | 1.6 | 6.4 | 0.00 | 0.08 | 0.03 | 89 | 1014.7 |
| 20260905221611 | 25 | 115 | 1.6 | 6.4 | 0.00 | 0.08 | 0.03 | 89 | 1014.6 |
| 20260905221325 | 26 | 300 | 1.6 | 6.4 | 0.00 | 0.08 | 0.03 | 89 | 1014.7 |
| 20260905220844 | 26 | 352 | 3.2 | 6.4 | 0.00 | 0.08 | 0.03 | 90 | 1015.0 |
| 20260905220319 | 27 | 302 | 0.0 | 0.0 | 0.00 | 0.08 | 0.03 | 90 | 1014.7 |
| 20260905220025 | 26 | 335 | 0.0 | 0.0 | 0.00 | 1.30 | 0.03 | 90 | 1014.5 |
| 20260905215816 | 27 | 117 | 0.0 | 0.0 | 0.00 | 1.30 | 0.03 | 90 | 1014.5 |
| 20260905215332 | 27 | 117 | 0.0 | 0.0 | 0.00 | 1.30 | 0.03 | 90 | 1014.5 |
| 20260905214827 | 27 | 117 | 0.0 | 0.0 | 0.00 | 1.30 | 0.03 | 89 | 1014.4 |
| 20260905214515 | 26 | 147 | 0.0 | 0.0 | 0.00 | 1.30 | 0.03 | 89 | 1014.2 |
| 20260905214325 | 27 | 289 | 0.0 | 0.0 | 0.00 | 1.30 | 0.03 | 89 | 1014.3 |
| 20260905213824 | 27 | 290 | 0.0 | 0.0 | 0.00 | 1.30 | 0.03 | 89 | 1014.2 |
| 20260905213321 | 27 | 290 | 0.0 | 0.0 | 0.00 | 1.30 | 0.03 | 88 | 1014.0 |
| 20260905213011 | 27 | 290 | 0.0 | 8.0 | 0.00 | 1.30 | 0.03 | 87 | 1013.6 |
| 20260905212838 | 27 | 290 | 0.0 | 8.0 | 0.00 | 1.30 | 0.03 | 87 | 1013.8 |
| 20260905212333 | 27 | 294 | 0.0 | 8.0 | 0.00 | 1.30 | 0.03 | 86 | 1013.7 |
| 20260905211850 | 28 | 274 | 1.6 | 6.4 | 0.00 | 1.30 | 0.03 | 85 | 1013.7 |
| 20260905211509 | 28 | 60 | 0.0 | 8.0 | 0.00 | 1.30 | 0.03 | 85 | 1013.7 |
| 20260905211345 | 28 | 20 | 1.6 | 8.0 | 0.00 | 1.30 | 0.03 | 84 | 1014.0 |
| 20260905210821 | 28 | 290 | 1.6 | 8.0 | 0.00 | 1.30 | 0.03 | 84 | 1013.9 |
| 20260905210318 | 28 | 192 | 0.0 | 1.6 | 0.00 | 1.30 | 0.03 | 84 | 1013.9 |
| 20260905210039 | 28 | 147 | 0.0 | 1.6 | 0.00 | 1.30 | 0.03 | 84 | 1013.7 |
| 20260905205815 | 28 | 147 | 0.0 | 1.6 | 0.00 | 3.68 | 0.03 | 83 | 1013.6 |
| 20260905205329 | 28 | 142 | 0.0 | 3.2 | 0.00 | 3.68 | 0.03 | 83 | 1013.7 |
| 20260905204825 | 28 | 130 | 0.0 | 8.0 | 0.00 | 3.68 | 0.03 | 83 | 1013.6 |
| 20260905204526 | 28 | 122 | 1.6 | 17.7 | 0.00 | 3.68 | 0.03 | 83 | 1013.5 |
| 20260905204321 | 28 | 137 | 3.2 | 17.7 | 0.00 | 3.68 | 0.03 | 83 | 1013.7 |
| 20260905203838 | 28 | 155 | 6.4 | 17.7 | 0.00 | 3.68 | 0.03 | 83 | 1013.2 |
| 20260905203355 | 29 | 131 | 4.8 | 12.9 | 0.00 | 3.68 | 0.03 | 83 | 1012.9 |
| 20260905203043 | 29 | 122 | 4.8 | 11.3 | 0.00 | 3.68 | 0.03 | 83 | 1012.7 |
| 20260905202852 | 29 | 114 | 4.8 | 17.7 | 0.00 | 3.68 | 0.03 | 83 | 1012.8 |
| 20260905202329 | 30 | 136 | 6.4 | 22.5 | 0.00 | 3.68 | 0.03 | 82 | 1013.0 |
| 20260905201826 | 30 | 143 | 14.5 | 22.5 | 0.00 | 3.68 | 0.03 | 81 | 1013.0 |
| 20260905201506 | 30 | 102 | 11.3 | 20.9 | 0.00 | 3.68 | 0.03 | 81 | 1013.0 |
| 20260905201323 | 31 | 182 | 12.9 | 20.9 | 0.00 | 3.68 | 0.03 | 81 | 1013.1 |
| 20260905200839 | 31 | 129 | 9.7 | 20.9 | 0.00 | 3.68 | 0.03 | 81 | 1013.3 |
| 20260905200355 | 31 | 159 | 11.3 | 20.9 | 0.00 | 3.68 | 0.03 | 81 | 1013.6 |
| 20260905200025 | 31 | 128 | 9.7 | 20.9 | 0.00 | 6.12 | 0.03 | 81 | 1013.5 |
| 20260905195832 | 31 | 113 | 8.0 | 20.9 | 0.00 | 6.12 | 0.03 | 81 | 1013.5 |
| 20260905195330 | 31 | 130 | 11.3 | 17.7 | 0.00 | 6.12 | 0.03 | 81 | 1013.5 |
| 20260905194828 | 31 | 122 | 12.9 | 17.7 | 0.00 | 6.12 | 0.03 | 81 | 1013.7 |
| 20260905194508 | 31 | 146 | 9.7 | 17.7 | 0.00 | 6.12 | 0.03 | 81 | 1013.7 |
| 20260905194346 | 31 | 151 | 8.0 | 19.3 | 0.00 | 6.12 | 0.03 | 81 | 1013.9 |
| 20260905193823 | 31 | 119 | 9.7 | 19.3 | 0.00 | 6.12 | 0.03 | 81 | 1013.9 |
| 20260905193341 | 31 | 127 | 9.7 | 14.5 | 0.00 | 6.12 | 0.03 | 81 | 1013.8 |
| 20260905193005 | 31 | 56 | 4.8 | 14.5 | 0.00 | 6.12 | 0.03 | 82 | 1013.7 |
| 20260905192837 | 31 | 131 | 6.4 | 14.5 | 0.00 | 6.12 | 0.03 | 82 | 1013.8 |
| 20260905192353 | 30 | 138 | 8.0 | 12.9 | 0.00 | 6.12 | 0.03 | 82 | 1013.7 |
| 20260905191829 | 30 | 103 | 3.2 | 9.7 | 0.00 | 6.12 | 0.03 | 83 | 1013.8 |
| 20260905191529 | 30 | 122 | 4.8 | 9.7 | 0.00 | 6.12 | 0.03 | 82 | 1013.7 |
| 20260905191327 | 30 | 95 | 1.6 | 9.7 | 0.00 | 6.12 | 0.03 | 83 | 1013.8 |
| 20260905190844 | 30 | 136 | 4.8 | 9.7 | 0.00 | 6.12 | 0.03 | 83 | 1013.8 |
| 20260905190319 | 29 | 143 | 3.2 | 9.7 | 0.00 | 6.12 | 0.03 | 84 | 1013.8 |
| 20260905190055 | 29 | 119 | 3.2 | 9.7 | 0.00 | 6.12 | 0.03 | 84 | 1013.6 |
| 20260905185838 | 29 | 131 | 4.8 | 6.4 | 0.00 | 6.12 | 0.03 | 84 | 1013.9 |
| 20260905185315 | 28 | 137 | 3.2 | 8.0 | 0.00 | 6.12 | 0.03 | 85 | 1014.1 |
| 20260905184832 | 28 | 62 | 1.6 | 8.0 | 0.00 | 6.12 | 0.03 | 85 | 1013.9 |
| 20260905184517 | 28 | 36 | 3.2 | 8.0 | 0.00 | 6.12 | 0.03 | 85 | 1013.9 |
| 20260905184343 | 28 | 61 | 1.6 | 8.0 | 0.00 | 6.12 | 0.03 | 85 | 1014.0 |
| 20260905183820 | 28 | 136 | 1.6 | 6.4 | 0.00 | 6.12 | 0.03 | 85 | 1014.1 |
| 20260905183317 | 28 | 85 | 3.2 | 6.4 | 0.00 | 6.12 | 0.03 | 85 | 1014.2 |
| 20260905183041 | 28 | 139 | 3.2 | 8.0 | 0.00 | 6.12 | 0.03 | 85 | 1014.0 |
| 20260905182816 | 28 | 66 | 3.2 | 8.0 | 0.00 | 6.12 | 0.03 | 85 | 1014.1 |
| 20260905182332 | 28 | 85 | 4.8 | 9.7 | 0.00 | 6.12 | 0.03 | 85 | 1014.1 |
| 20260905181830 | 28 | 63 | 4.8 | 9.7 | 0.00 | 6.12 | 0.03 | 85 | 1014.3 |
| 20260905181522 | 28 | 109 | 3.2 | 9.7 | 0.00 | 6.12 | 0.03 | 86 | 1014.3 |
| 20260905181326 | 28 | 108 | 3.2 | 8.0 | 0.00 | 6.12 | 0.03 | 87 | 1014.4 |
| 20260905180844 | 28 | 49 | 4.8 | 8.0 | 0.00 | 6.12 | 0.03 | 87 | 1014.7 |
| 20260905180321 | 28 | 54 | 3.2 | 12.9 | 0.00 | 6.12 | 0.03 | 88 | 1014.6 |
| 20260905180045 | 27 | 41 | 4.8 | 12.9 | 0.00 | 6.12 | 0.03 | 88 | 1014.5 |
| 20260905175818 | 28 | 37 | 4.8 | 12.9 | 0.00 | 6.12 | 0.03 | 88 | 1014.6 |
| 20260905175316 | 28 | 47 | 4.8 | 8.0 | 0.00 | 6.12 | 0.03 | 87 | 1014.6 |
| 20260905174834 | 28 | 54 | 3.2 | 12.9 | 0.00 | 6.12 | 0.03 | 87 | 1014.6 |
| 20260905174532 | 28 | 55 | 6.4 | 12.9 | 0.00 | 6.12 | 0.03 | 86 | 1014.6 |
| 20260905174331 | 28 | 44 | 8.0 | 12.9 | 0.00 | 6.12 | 0.03 | 86 | 1014.7 |
| 20260905173848 | 28 | 47 | 3.2 | 4.8 | 0.00 | 6.12 | 0.03 | 86 | 1014.7 |
| 20260905173326 | 28 | 347 | 0.0 | 8.0 | 0.00 | 6.12 | 0.03 | 87 | 1014.5 |
| 20260905173027 | 28 | 347 | 1.6 | 11.3 | 0.00 | 6.12 | 0.03 | 86 | 1014.4 |
| 20260905172823 | 28 | 36 | 3.2 | 11.3 | 0.00 | 6.12 | 0.03 | 86 | 1014.8 |
| 20260905172322 | 28 | 29 | 6.4 | 11.3 | 0.00 | 6.12 | 0.03 | 86 | 1015.0 |
| 20260905171819 | 29 | 45 | 0.0 | 1.6 | 0.00 | 6.12 | 0.03 | 86 | 1014.9 |
| 20260905171518 | 28 | 340 | 0.0 | 1.6 | 0.00 | 6.12 | 0.03 | 85 | 1014.8 |
| 20260905171317 | 28 | 31 | 0.0 | 1.6 | 0.00 | 6.12 | 0.03 | 85 | 1014.8 |
| 20260905170835 | 28 | 356 | 0.0 | 0.0 | 0.00 | 6.12 | 0.03 | 85 | 1015.0 |
| 20260905170332 | 28 | 309 | 0.0 | 3.2 | 0.00 | 6.12 | 0.03 | 85 | 1015.0 |
| 20260905170059 | 28 | 3 | 0.0 | 8.0 | 0.00 | 6.12 | 0.03 | 85 | 1014.9 |
| 20260905170002 | 28 | 3 | 0.0 | 8.0 | 0.00 | 6.12 | 0.03 | 84 | 1014.8 |
| 20260905165830 | 28 | 13 | 0.0 | 8.0 | 0.00 | 6.12 | 0.03 | 84 | 1014.9 |
| 20260905165328 | 28 | 12 | 3.2 | 8.0 | 0.00 | 6.12 | 0.03 | 83 | 1015.0 |
| 20260905164827 | 30 | 359 | 1.6 | 6.4 | 0.00 | 6.12 | 0.03 | 83 | 1015.2 |
| 20260905164545 | 30 | 1 | 0.0 | 6.4 | 0.00 | 6.12 | 0.03 | 82 | 1015.1 |
| 20260905164326 | 30 | 304 | 1.6 | 6.4 | 0.00 | 6.12 | 0.03 | 82 | 1015.2 |
| 20260905163824 | 31 | 29 | 0.0 | 8.0 | 0.00 | 6.12 | 0.03 | 81 | 1015.2 |
| 20260905163320 | 32 | 328 | 0.0 | 8.0 | 0.00 | 6.12 | 0.03 | 80 | 1015.3 |
| 20260905163029 | 32 | 34 | 1.6 | 11.3 | 0.00 | 6.12 | 0.03 | 79 | 1015.3 |
| 20260905162818 | 32 | 344 | 0.0 | 11.3 | 0.00 | 6.12 | 0.03 | 79 | 1015.4 |
| 20260905162315 | 33 | 129 | 6.4 | 11.3 | 0.00 | 6.12 | 0.03 | 77 | 1015.3 |
| 20260905161815 | 33 | 140 | 1.6 | 12.9 | 0.00 | 6.12 | 0.03 | 78 | 1015.3 |
| 20260905161512 | 32 | 154 | 0.0 | 12.9 | 0.00 | 6.12 | 0.03 | 79 | 1015.3 |
| 20260905161333 | 32 | 108 | 1.6 | 12.9 | 0.00 | 6.12 | 0.03 | 78 | 1015.4 |
| 20260905160829 | 32 | 152 | 4.8 | 11.3 | 0.00 | 6.12 | 0.03 | 78 | 1015.4 |
| 20260905160326 | 32 | 133 | 3.2 | 8.0 | 0.00 | 6.12 | 0.03 | 77 | 1015.3 |
| 20260905160053 | 32 | 95 | 1.6 | 8.0 | 0.00 | 6.12 | 0.03 | 78 | 1015.3 |
| 20260905155823 | 33 | 174 | 3.2 | 8.0 | 0.00 | 6.12 | 0.03 | 79 | 1015.5 |
| 20260905155320 | 32 | 122 | 1.6 | 8.0 | 0.00 | 6.12 | 0.03 | 81 | 1015.6 |
| 20260905154836 | 32 | 146 | 0.0 | 8.0 | 0.00 | 6.12 | 0.03 | 82 | 1015.7 |
| 20260905154510 | 32 | 312 | 0.0 | 8.0 | 0.00 | 6.12 | 0.03 | 82 | 1015.6 |
| 20260905154314 | 32 | 308 | 0.0 | 8.0 | 0.00 | 6.12 | 0.03 | 81 | 1015.8 |
| 20260905153833 | 32 | 157 | 1.6 | 6.4 | 0.00 | 6.12 | 0.03 | 81 | 1015.8 |
| 20260905153333 | 32 | 214 | 1.6 | 11.3 | 0.00 | 6.12 | 0.03 | 82 | 1015.8 |
| 20260905153056 | 31 | 134 | 1.6 | 11.3 | 0.00 | 6.12 | 0.03 | 82 | 1015.8 |
| 20260905152833 | 32 | 129 | 4.8 | 11.3 | 0.00 | 6.12 | 0.03 | 81 | 1015.9 |
| 20260905152331 | 31 | 161 | 0.0 | 0.0 | 0.00 | 6.12 | 0.03 | 83 | 1015.9 |
| 20260905151829 | 31 | 161 | 0.0 | 0.0 | 0.00 | 6.12 | 0.03 | 82 | 1015.8 |
| 20260905151545 | 31 | 161 | 0.0 | 0.0 | 0.00 | 6.12 | 0.03 | 82 | 1015.7 |
| 20260905151329 | 31 | 161 | 0.0 | 0.0 | 0.00 | 6.12 | 0.03 | 82 | 1015.8 |
| 20260905150826 | 32 | 161 | 0.0 | 0.0 | 0.00 | 6.12 | 0.03 | 82 | 1015.8 |
| 20260905150323 | 32 | 136 | 0.0 | 1.6 | 0.00 | 6.12 | 0.03 | 82 | 1015.7 |
| 20260905150031 | 32 | 134 | 0.0 | 6.4 | 0.00 | 6.12 | 0.03 | 81 | 1015.6 |
| 20260905145841 | 32 | 134 | 0.0 | 6.4 | 0.00 | 6.12 | 0.03 | 81 | 1015.9 |
| 20260905145337 | 32 | 130 | 1.6 | 6.4 | 0.00 | 6.12 | 0.03 | 81 | 1015.8 |
| 20260905144834 | 32 | 148 | 1.6 | 9.7 | 0.00 | 6.12 | 0.03 | 81 | 1015.7 |
| 20260905144532 | 31 | 146 | 4.8 | 9.7 | 0.00 | 6.12 | 0.03 | 81 | 1015.6 |
| 20260905144333 | 32 | 151 | 4.8 | 9.7 | 0.00 | 6.12 | 0.03 | 81 | 1015.7 |
| 20260905143830 | 32 | 148 | 3.2 | 6.4 | 0.00 | 6.12 | 0.03 | 81 | 1015.6 |
| 20260905143343 | 32 | 122 | 0.0 | 6.4 | 0.00 | 6.12 | 0.03 | 81 | 1015.5 |
| 20260905143101 | 32 | 143 | 0.0 | 6.4 | 0.00 | 6.12 | 0.03 | 81 | 1015.4 |
| 20260905143003 | 32 | 113 | 1.6 | 6.4 | 0.00 | 6.12 | 0.03 | 81 | 1015.4 |
| 20260905142821 | 32 | 152 | 3.2 | 6.4 | 0.00 | 6.12 | 0.03 | 81 | 1015.5 |
| 20260905142337 | 32 | 159 | 0.0 | 4.8 | 0.00 | 6.12 | 0.03 | 82 | 1015.6 |
| 20260905141836 | 32 | 356 | 0.0 | 0.0 | 0.00 | 6.12 | 0.03 | 83 | 1015.5 |
| 20260905141504 | 31 | 143 | 0.0 | 0.0 | 0.00 | 6.12 | 0.03 | 83 | 1015.4 |
| 20260905141332 | 31 | 143 | 0.0 | 0.0 | 0.00 | 6.12 | 0.03 | 83 | 1015.5 |
| 20260905140830 | 31 | 144 | 0.0 | 1.6 | 0.00 | 6.12 | 0.03 | 83 | 1015.5 |
| 20260905140326 | 30 | 144 | 0.0 | 1.6 | 0.00 | 6.12 | 0.03 | 83 | 1015.7 |
| 20260905140051 | 30 | 144 | 0.0 | 1.6 | 0.00 | 6.12 | 0.03 | 83 | 1015.5 |
| 20260905135824 | 31 | 138 | 0.0 | 3.2 | 0.00 | 6.12 | 0.03 | 83 | 1015.6 |
| 20260905135322 | 31 | 124 | 0.0 | 4.8 | 0.00 | 6.12 | 0.03 | 83 | 1015.7 |
| 20260905134817 | 31 | 119 | 1.6 | 8.0 | 0.00 | 6.12 | 0.03 | 83 | 1015.6 |
| 20260905134516 | 31 | 133 | 1.6 | 8.0 | 0.00 | 6.12 | 0.03 | 83 | 1015.6 |
| 20260905134334 | 32 | 147 | 1.6 | 4.8 | 0.00 | 6.12 | 0.03 | 82 | 1015.7 |
| 20260905133853 | 32 | 144 | 1.6 | 4.8 | 0.00 | 6.12 | 0.03 | 83 | 1015.7 |
| 20260905133328 | 31 | 173 | 0.0 | 6.4 | 0.00 | 6.12 | 0.03 | 83 | 1015.7 |
| 20260905133040 | 31 | 112 | 1.6 | 6.4 | 0.00 | 6.12 | 0.03 | 83 | 1015.6 |
| 20260905132824 | 31 | 148 | 3.2 | 6.4 | 0.00 | 6.12 | 0.03 | 83 | 1015.6 |
| 20260905132341 | 31 | 158 | 0.0 | 4.8 | 0.00 | 6.12 | 0.03 | 84 | 1015.7 |
| 20260905131837 | 32 | 137 | 0.0 | 1.6 | 0.00 | 6.12 | 0.03 | 84 | 1015.6 |
| 20260905131603 | 31 | 133 | 0.0 | 1.6 | 0.00 | 6.12 | 0.03 | 85 | 1015.5 |
| 20260905131353 | 31 | 156 | 0.0 | 1.6 | 0.00 | 6.12 | 0.03 | 86 | 1015.8 |
| 20260905130830 | 31 | 140 | 0.0 | 1.6 | 0.00 | 6.12 | 0.03 | 89 | 1015.8 |
| 20260905130346 | 30 | 140 | 0.0 | 1.6 | 0.00 | 6.12 | 0.03 | 91 | 1015.8 |
| 20260905130057 | 30 | 159 | 0.0 | 1.6 | 0.00 | 6.12 | 0.03 | 92 | 1015.6 |
| 20260905125820 | 30 | 134 | 0.0 | 0.0 | 0.00 | 6.12 | 0.03 | 93 | 1015.8 |
| 20260905125316 | 30 | 134 | 0.0 | 0.0 | 0.00 | 6.12 | 0.03 | 94 | 1015.9 |
| 20260905124831 | 29 | 134 | 0.0 | 0.0 | 0.00 | 6.12 | 0.03 | 95 | 1015.9 |
| 20260905124536 | 28 | 134 | 0.0 | 0.0 | 0.00 | 6.12 | 0.03 | 94 | 1015.8 |
| 20260905124329 | 28 | 134 | 0.0 | 0.0 | 0.00 | 6.12 | 0.03 | 95 | 1015.9 |
| 20260905123844 | 28 | 134 | 0.0 | 0.0 | 0.00 | 6.12 | 0.03 | 95 | 1015.9 |
| 20260905123336 | 28 | 134 | 0.0 | 0.0 | 0.00 | 6.12 | 0.03 | 95 | 1015.9 |
| 20260905123032 | 27 | 134 | 0.0 | 0.0 | 0.00 | 6.12 | 0.03 | 95 | 1015.9 |
| 20260905122832 | 27 | 134 | 0.0 | 0.0 | 0.00 | 6.12 | 0.03 | 95 | 1016.0 |
| 20260905122329 | 27 | 134 | 0.0 | 0.0 | 0.00 | 6.12 | 0.03 | 95 | 1015.9 |
| 20260905121826 | 27 | 133 | 0.0 | 0.0 | 0.00 | 6.12 | 0.03 | 95 | 1015.9 |
| 20260905121525 | 27 | 134 | 0.0 | 0.0 | 0.00 | 6.12 | 0.03 | 95 | 1015.7 |
| 20260905121322 | 27 | 134 | 0.0 | 1.6 | 0.00 | 6.12 | 0.03 | 95 | 1015.8 |
| 20260905120838 | 26 | 134 | 0.0 | 1.6 | 0.00 | 6.12 | 0.03 | 95 | 1015.7 |
| 20260905120353 | 26 | 134 | 0.0 | 0.0 | 0.00 | 6.12 | 0.03 | 95 | 1015.8 |
| 20260905120048 | 26 | 134 | 0.0 | 0.0 | 0.00 | 6.12 | 0.03 | 95 | 1015.6 |
| 20260905115830 | 26 | 134 | 0.0 | 0.0 | 0.00 | 6.12 | 0.03 | 95 | 1015.7 |
| 20260905115325 | 26 | 134 | 0.0 | 0.0 | 0.00 | 6.12 | 0.03 | 95 | 1015.6 |
| 20260905114823 | 26 | 134 | 0.0 | 0.0 | 0.00 | 6.12 | 0.03 | 95 | 1015.5 |
| 20260905114535 | 26 | 133 | 0.0 | 0.0 | 0.00 | 6.12 | 0.03 | 95 | 1015.4 |
| 20260905114320 | 26 | 134 | 0.0 | 0.0 | 0.00 | 6.12 | 0.03 | 95 | 1015.5 |
| 20260905113817 | 26 | 134 | 0.0 | 0.0 | 0.00 | 6.12 | 0.03 | 95 | 1015.4 |
| 20260905113315 | 26 | 134 | 0.0 | 0.0 | 0.00 | 6.12 | 0.03 | 95 | 1015.3 |
| 20260905113019 | 26 | 134 | 0.0 | 0.0 | 0.00 | 6.12 | 0.03 | 95 | 1015.1 |
| 20260905112832 | 26 | 134 | 0.0 | 0.0 | 0.00 | 6.12 | 0.03 | 95 | 1015.3 |
| 20260905112329 | 26 | 134 | 0.0 | 0.0 | 0.00 | 6.12 | 0.03 | 95 | 1015.2 |
| 20260905111846 | 26 | 134 | 0.0 | 0.0 | 0.00 | 6.12 | 0.03 | 95 | 1015.0 |
| 20260905111544 | 25 | 134 | 0.0 | 0.0 | 0.00 | 6.12 | 0.03 | 95 | 1015.0 |
| 20260905111320 | 26 | 134 | 0.0 | 0.0 | 0.00 | 6.12 | 0.03 | 95 | 1015.1 |
| 20260905110818 | 26 | 134 | 0.0 | 0.0 | 0.00 | 6.12 | 0.03 | 95 | 1015.1 |
| 20260905110317 | 26 | 134 | 0.0 | 0.0 | 0.00 | 6.12 | 0.03 | 95 | 1015.1 |
| 20260905110026 | 25 | 134 | 0.0 | 0.0 | 0.00 | 6.12 | 0.03 | 95 | 1015.0 |
| 20260905105833 | 26 | 134 | 0.0 | 0.0 | 0.00 | 6.12 | 0.03 | 95 | 1015.0 |
| 20260905105351 | 26 | 134 | 0.0 | 0.0 | 0.00 | 6.12 | 0.03 | 95 | 1015.1 |
| 20260905104827 | 26 | 134 | 0.0 | 0.0 | 0.00 | 6.12 | 0.03 | 95 | 1015.1 |
| 20260905104601 | 26 | 134 | 0.0 | 0.0 | 0.00 | 6.12 | 0.03 | 95 | 1014.9 |
| 20260905104324 | 26 | 134 | 0.0 | 0.0 | 0.00 | 6.12 | 0.03 | 95 | 1015.0 |
| 20260905103821 | 26 | 134 | 0.0 | 0.0 | 0.00 | 6.12 | 0.03 | 95 | 1015.1 |
| 20260905103317 | 26 | 134 | 0.0 | 0.0 | 0.00 | 6.12 | 0.03 | 95 | 1015.1 |
| 20260905103037 | 26 | 134 | 0.0 | 0.0 | 0.00 | 6.12 | 0.03 | 95 | 1015.0 |
| 20260905102815 | 26 | 134 | 0.0 | 0.0 | 0.00 | 6.12 | 0.03 | 95 | 1015.0 |
| 20260905102333 | 26 | 134 | 0.0 | 0.0 | 0.00 | 6.12 | 0.03 | 95 | 1015.0 |
| 20260905101829 | 26 | 134 | 0.0 | 0.0 | 0.00 | 6.12 | 0.03 | 95 | 1015.1 |
| 20260905101551 | 26 | 134 | 0.0 | 0.0 | 0.00 | 6.12 | 0.03 | 95 | 1015.0 |
| 20260905101325 | 26 | 134 | 0.0 | 0.0 | 0.00 | 6.12 | 0.03 | 95 | 1015.0 |
| 20260905100822 | 26 | 134 | 0.0 | 0.0 | 0.00 | 6.12 | 0.03 | 95 | 1015.0 |
| 20260905100318 | 26 | 134 | 0.0 | 0.0 | 0.00 | 6.12 | 0.03 | 95 | 1014.9 |
| 20260905100037 | 26 | 134 | 0.0 | 0.0 | 0.00 | 6.12 | 0.03 | 95 | 1014.9 |
| 20260905095817 | 26 | 134 | 0.0 | 0.0 | 0.00 | 6.12 | 0.03 | 95 | 1014.8 |
| 20260905095314 | 26 | 134 | 0.0 | 0.0 | 0.00 | 6.12 | 0.03 | 95 | 1014.8 |
| 20260905094832 | 26 | 134 | 0.0 | 0.0 | 0.00 | 6.12 | 0.03 | 95 | 1014.7 |
| 20260905094522 | 26 | 134 | 0.0 | 0.0 | 0.00 | 6.12 | 0.03 | 95 | 1014.6 |
| 20260905094329 | 26 | 134 | 0.0 | 0.0 | 0.00 | 6.12 | 0.03 | 95 | 1014.8 |
| 20260905093824 | 26 | 134 | 0.0 | 0.0 | 0.00 | 6.12 | 0.03 | 95 | 1014.7 |
| 20260905093322 | 26 | 134 | 0.0 | 0.0 | 0.00 | 6.12 | 0.03 | 95 | 1014.6 |
| 20260905093011 | 26 | 134 | 0.0 | 0.0 | 0.00 | 6.12 | 0.03 | 95 | 1014.6 |
| 20260905092819 | 26 | 134 | 0.0 | 0.0 | 0.00 | 6.12 | 0.03 | 95 | 1014.7 |
| 20260905092317 | 26 | 134 | 0.0 | 0.0 | 0.00 | 6.12 | 0.03 | 95 | 1014.6 |
| 20260905091832 | 26 | 134 | 0.0 | 1.6 | 0.00 | 6.12 | 0.03 | 95 | 1014.6 |
| 20260905091531 | 26 | 134 | 0.0 | 1.6 | 0.00 | 6.12 | 0.03 | 95 | 1014.5 |
| 20260905091328 | 26 | 134 | 0.0 | 1.6 | 0.00 | 6.12 | 0.03 | 95 | 1014.6 |
| 20260905090826 | 26 | 134 | 0.0 | 0.0 | 0.00 | 6.12 | 0.03 | 95 | 1014.7 |
| 20260905090323 | 26 | 134 | 0.0 | 0.0 | 0.00 | 6.12 | 0.03 | 95 | 1014.6 |
| 20260905090020 | 26 | 134 | 0.0 | 0.0 | 0.00 | 6.12 | 0.03 | 95 | 1014.5 |
| 20260905085822 | 26 | 134 | 0.0 | 0.0 | 0.00 | 6.12 | 0.03 | 95 | 1014.6 |
| 20260905085321 | 26 | 134 | 0.0 | 0.0 | 0.00 | 6.12 | 0.03 | 95 | 1014.6 |
| 20260905084817 | 26 | 134 | 0.0 | 0.0 | 0.00 | 6.12 | 0.03 | 95 | 1014.6 |
| 20260905084515 | 26 | 134 | 0.0 | 0.0 | 0.00 | 6.12 | 0.03 | 95 | 1014.6 |
| 20260905084358 | 26 | 134 | 0.0 | 0.0 | 0.00 | 6.12 | 0.03 | 95 | 1014.7 |
| 20260905083834 | 26 | 134 | 0.0 | 0.0 | 0.00 | 6.12 | 0.03 | 95 | 1014.7 |
| 20260905083329 | 26 | 134 | 0.0 | 0.0 | 0.00 | 6.12 | 0.03 | 95 | 1014.7 |
| 20260905083008 | 26 | 134 | 0.0 | 0.0 | 0.00 | 6.12 | 0.03 | 95 | 1014.7 |
| 20260905082827 | 26 | 134 | 0.0 | 0.0 | 0.00 | 6.12 | 0.03 | 95 | 1014.8 |
| 20260905082324 | 26 | 134 | 0.0 | 0.0 | 0.00 | 6.12 | 0.03 | 95 | 1014.8 |
| 20260905081823 | 26 | 134 | 0.0 | 0.0 | 0.00 | 6.12 | 0.03 | 95 | 1014.8 |
| 20260905081537 | 26 | 134 | 0.0 | 0.0 | 0.00 | 6.12 | 0.03 | 95 | 1014.6 |
| 20260905081320 | 26 | 134 | 0.0 | 0.0 | 0.00 | 6.12 | 0.03 | 95 | 1014.7 |
| 20260905080817 | 26 | 134 | 0.0 | 0.0 | 0.00 | 6.12 | 0.03 | 95 | 1014.8 |
| 20260905080315 | 26 | 134 | 0.0 | 0.0 | 0.00 | 6.12 | 0.03 | 95 | 1014.7 |
| 20260905080031 | 26 | 133 | 0.0 | 0.0 | 0.00 | 6.12 | 0.03 | 95 | 1014.6 |
| 20260905075833 | 26 | 133 | 0.0 | 0.0 | 0.00 | 6.12 | 0.03 | 95 | 1014.7 |
| 20260905075351 | 26 | 134 | 0.0 | 0.0 | 0.00 | 6.12 | 0.03 | 95 | 1014.7 |
| 20260905074826 | 26 | 133 | 0.0 | 0.0 | 0.00 | 6.12 | 0.03 | 95 | 1014.7 |
| 20260905074540 | 26 | 134 | 0.0 | 0.0 | 0.00 | 6.12 | 0.03 | 95 | 1014.7 |
| 20260905074323 | 26 | 134 | 0.0 | 0.0 | 0.00 | 6.12 | 0.03 | 95 | 1014.8 |
| 20260905073821 | 26 | 133 | 0.0 | 0.0 | 0.00 | 6.12 | 0.03 | 95 | 1014.8 |
| 20260905073318 | 26 | 134 | 0.0 | 0.0 | 0.00 | 6.12 | 0.03 | 95 | 1014.7 |
| 20260905073006 | 26 | 134 | 0.0 | 0.0 | 0.00 | 6.12 | 0.03 | 95 | 1014.6 |
| 20260905072817 | 26 | 134 | 0.0 | 0.0 | 0.03 | 6.12 | 0.03 | 95 | 1014.7 |
| 20260905072314 | 26 | 134 | 0.0 | 0.0 | 0.03 | 6.12 | 0.03 | 95 | 1014.7 |
| 20260905071832 | 26 | 134 | 0.0 | 0.0 | 0.03 | 6.12 | 0.03 | 95 | 1014.7 |
| 20260905071552 | 26 | 134 | 0.0 | 0.0 | 0.03 | 6.12 | 0.03 | 94 | 1014.6 |
| 20260905071330 | 26 | 134 | 0.0 | 0.0 | 0.03 | 6.12 | 0.03 | 95 | 1014.8 |
| 20260905070848 | 26 | 134 | 0.0 | 0.0 | 0.03 | 6.12 | 0.03 | 95 | 1014.8 |
| 20260905070324 | 26 | 134 | 0.0 | 0.0 | 0.03 | 6.12 | 0.03 | 95 | 1014.8 |
| 20260905070028 | 26 | 134 | 0.0 | 0.0 | 0.03 | 6.12 | 0.03 | 95 | 1014.8 |
| 20260905065821 | 26 | 134 | 0.0 | 0.0 | 0.03 | 6.12 | 0.03 | 95 | 1014.9 |
| 20260905065318 | 26 | 134 | 0.0 | 0.0 | 0.03 | 6.12 | 0.03 | 95 | 1015.0 |
| 20260905064814 | 26 | 134 | 0.0 | 0.0 | 0.03 | 6.12 | 0.03 | 95 | 1015.1 |
| 20260905064558 | 26 | 134 | 0.0 | 0.0 | 0.03 | 6.12 | 0.03 | 95 | 1015.0 |
| 20260905064334 | 26 | 133 | 0.0 | 0.0 | 0.03 | 6.12 | 0.03 | 95 | 1015.1 |
| 20260905063851 | 26 | 134 | 0.0 | 0.0 | 0.03 | 6.12 | 0.03 | 95 | 1015.2 |
| 20260905063328 | 26 | 134 | 0.0 | 0.0 | 0.03 | 6.12 | 0.03 | 95 | 1015.2 |
| 20260905063018 | 26 | 134 | 0.0 | 0.0 | 0.00 | 6.10 | 0.03 | 95 | 1015.2 |
| 20260905062826 | 26 | 134 | 0.0 | 0.0 | 0.00 | 6.10 | 0.00 | 95 | 1015.4 |
| 20260905062322 | 26 | 134 | 0.0 | 0.0 | 0.00 | 6.10 | 0.00 | 94 | 1015.4 |
| 20260905061821 | 26 | 134 | 0.0 | 0.0 | 0.00 | 6.10 | 0.00 | 94 | 1015.5 |
| 20260905061504 | 26 | 134 | 0.0 | 0.0 | 0.00 | 6.10 | 0.00 | 94 | 1015.4 |
| 20260905061339 | 26 | 134 | 0.0 | 0.0 | 0.00 | 6.10 | 0.00 | 94 | 1015.5 |
| 20260905060834 | 26 | 134 | 0.0 | 0.0 | 0.00 | 6.10 | 0.00 | 94 | 1015.6 |
| 20260905060347 | 26 | 134 | 0.0 | 0.0 | 0.00 | 6.10 | 0.00 | 94 | 1015.6 |
| 20260905060100 | 26 | 134 | 0.0 | 0.0 | 0.00 | 6.10 | 0.00 | 94 | 1015.6 |
| 20260905060002 | 26 | 134 | 0.0 | 0.0 | 0.00 | 6.10 | 0.00 | 94 | 1015.6 |
| 20260905055824 | 26 | 134 | 0.0 | 0.0 | 0.00 | 6.10 | 0.00 | 94 | 1015.7 |
| 20260905055320 | 26 | 134 | 0.0 | 0.0 | 0.00 | 6.10 | 0.00 | 94 | 1015.8 |
| 20260905054818 | 26 | 134 | 0.0 | 0.0 | 0.00 | 6.10 | 0.00 | 94 | 1015.9 |
| 20260905054549 | 26 | 134 | 0.0 | 0.0 | 0.00 | 6.10 | 0.00 | 94 | 1015.7 |
| 20260905054337 | 26 | 134 | 0.0 | 0.0 | 0.00 | 6.10 | 0.00 | 94 | 1015.9 |
| 20260905053855 | 27 | 134 | 0.0 | 0.0 | 0.00 | 6.10 | 0.00 | 94 | 1015.9 |
| 20260905053329 | 27 | 134 | 0.0 | 0.0 | 0.00 | 6.10 | 0.00 | 94 | 1016.0 |
| 20260905053046 | 26 | 133 | 0.0 | 0.0 | 0.00 | 6.10 | 0.00 | 94 | 1015.9 |
| 20260905052825 | 27 | 134 | 0.0 | 0.0 | 0.00 | 6.10 | 0.00 | 94 | 1016.1 |
| 20260905052322 | 27 | 134 | 0.0 | 0.0 | 0.00 | 6.10 | 0.00 | 94 | 1016.0 |
| 20260905051820 | 27 | 134 | 0.0 | 0.0 | 0.00 | 6.10 | 0.00 | 94 | 1016.1 |
| 20260905051542 | 26 | 134 | 0.0 | 0.0 | 0.00 | 6.10 | 0.00 | 94 | 1016.0 |
| 20260905051318 | 27 | 134 | 0.0 | 0.0 | 0.00 | 6.10 | 0.00 | 94 | 1016.1 |
| 20260905050815 | 27 | 134 | 0.0 | 0.0 | 0.00 | 6.10 | 0.00 | 94 | 1016.1 |
| 20260905050331 | 27 | 134 | 0.0 | 0.0 | 0.00 | 6.10 | 0.00 | 94 | 1016.2 |
| 20260905050020 | 26 | 134 | 0.0 | 0.0 | 0.00 | 6.10 | 0.00 | 94 | 1016.0 |
| 20260905045827 | 26 | 134 | 0.0 | 0.0 | 0.00 | 6.10 | 0.00 | 94 | 1016.1 |
| 20260905045326 | 26 | 134 | 0.0 | 0.0 | 0.00 | 6.10 | 0.00 | 94 | 1016.2 |
| 20260905044823 | 26 | 134 | 0.0 | 0.0 | 0.00 | 6.10 | 0.00 | 94 | 1016.2 |
| 20260905044517 | 26 | 134 | 0.0 | 0.0 | 0.00 | 6.10 | 0.00 | 94 | 1016.1 |
| 20260905044320 | 27 | 134 | 0.0 | 0.0 | 0.00 | 6.10 | 0.00 | 94 | 1016.3 |
| 20260905043818 | 26 | 134 | 0.0 | 0.0 | 0.00 | 6.10 | 0.00 | 94 | 1016.2 |
| 20260905043315 | 27 | 134 | 0.0 | 0.0 | 0.00 | 6.10 | 0.00 | 94 | 1016.2 |
| 20260905043054 | 26 | 134 | 0.0 | 0.0 | 0.00 | 6.10 | 0.00 | 94 | 1016.1 |
| 20260905042859 | 27 | 134 | 0.0 | 0.0 | 0.00 | 6.10 | 0.00 | 94 | 1016.3 |
| 20260905042353 | 27 | 134 | 0.0 | 0.0 | 0.00 | 6.10 | 0.00 | 94 | 1016.3 |
| 20260905041830 | 27 | 134 | 0.0 | 0.0 | 0.00 | 6.10 | 0.00 | 94 | 1016.3 |
| 20260905041557 | 26 | 134 | 0.0 | 0.0 | 0.00 | 6.10 | 0.00 | 94 | 1016.3 |
| 20260905041503 | 26 | 134 | 0.0 | 0.0 | 0.00 | 6.10 | 0.00 | 94 | 1016.2 |
| 20260905041348 | 27 | 134 | 0.0 | 0.0 | 0.00 | 6.10 | 0.00 | 94 | 1016.4 |
| 20260905040845 | 26 | 134 | 0.0 | 0.0 | 0.00 | 6.10 | 0.00 | 94 | 1016.3 |
| 20260905040321 | 26 | 134 | 0.0 | 0.0 | 0.00 | 6.10 | 0.00 | 94 | 1016.3 |
| 20260905040057 | 26 | 134 | 0.0 | 0.0 | 0.00 | 6.10 | 0.00 | 94 | 1016.2 |
| 20260905035818 | 26 | 134 | 0.0 | 0.0 | 0.00 | 6.10 | 6.10 | 94 | 1016.3 |
| 20260905035315 | 26 | 134 | 0.0 | 0.0 | 0.00 | 6.10 | 6.10 | 94 | 1016.3 |
| 20260905034832 | 26 | 134 | 0.0 | 0.0 | 0.00 | 6.10 | 6.10 | 94 | 1016.4 |
| 20260905034541 | 26 | 134 | 0.0 | 0.0 | 0.00 | 6.10 | 6.10 | 94 | 1016.3 |
| 20260905034329 | 26 | 134 | 0.0 | 0.0 | 0.00 | 6.10 | 6.10 | 94 | 1016.5 |
| 20260905033825 | 27 | 134 | 0.0 | 0.0 | 0.00 | 6.10 | 6.10 | 94 | 1016.4 |
| 20260905033324 | 27 | 134 | 0.0 | 0.0 | 0.00 | 6.10 | 6.10 | 94 | 1016.4 |
| 20260905033100 | 26 | 134 | 0.0 | 0.0 | 0.00 | 6.10 | 6.10 | 94 | 1016.4 |
| 20260905033002 | 26 | 134 | 0.0 | 0.0 | 0.00 | 6.10 | 6.10 | 94 | 1016.4 |
| 20260905032819 | 27 | 134 | 0.0 | 0.0 | 0.00 | 6.10 | 6.10 | 94 | 1016.6 |
| 20260905032316 | 26 | 134 | 0.0 | 0.0 | 0.00 | 6.10 | 6.10 | 94 | 1016.5 |
| 20260905031835 | 27 | 134 | 0.0 | 0.0 | 0.00 | 6.10 | 6.10 | 94 | 1016.5 |
| 20260905031548 | 26 | 134 | 0.0 | 0.0 | 0.00 | 6.10 | 6.10 | 94 | 1016.4 |
| 20260905031328 | 27 | 134 | 0.0 | 0.0 | 0.00 | 6.10 | 6.10 | 94 | 1016.5 |
| 20260905030824 | 27 | 134 | 0.0 | 0.0 | 0.00 | 6.10 | 6.10 | 94 | 1016.6 |
| 20260905030319 | 27 | 134 | 0.0 | 0.0 | 0.00 | 6.10 | 6.10 | 94 | 1016.6 |
| 20260905030016 | 26 | 134 | 0.0 | 0.0 | 0.00 | 6.10 | 6.10 | 94 | 1016.5 |
| 20260905025819 | 27 | 134 | 0.0 | 0.0 | 0.00 | 6.10 | 6.10 | 94 | 1016.6 |
| 20260905025316 | 27 | 134 | 0.0 | 0.0 | 0.00 | 6.10 | 6.10 | 94 | 1016.6 |
| 20260905024833 | 27 | 134 | 0.0 | 0.0 | 0.00 | 6.10 | 6.10 | 94 | 1016.5 |
| 20260905024539 | 26 | 134 | 0.0 | 0.0 | 0.00 | 6.10 | 6.10 | 94 | 1016.5 |
| 20260905024348 | 27 | 134 | 0.0 | 0.0 | 0.00 | 6.10 | 6.10 | 94 | 1016.6 |
| 20260905023825 | 27 | 134 | 0.0 | 0.0 | 0.00 | 6.10 | 6.10 | 94 | 1016.6 |
| 20260905023324 | 26 | 133 | 0.0 | 0.0 | 0.00 | 6.10 | 6.10 | 94 | 1016.6 |
| 20260905023006 | 26 | 134 | 0.0 | 0.0 | 0.00 | 6.10 | 6.10 | 94 | 1016.5 |
| 20260905022841 | 27 | 134 | 0.0 | 0.0 | 0.00 | 6.10 | 6.10 | 94 | 1016.7 |
| 20260905022317 | 27 | 134 | 0.0 | 0.0 | 0.00 | 6.10 | 6.10 | 94 | 1016.8 |
| 20260905021814 | 26 | 134 | 0.0 | 0.0 | 0.00 | 6.10 | 6.10 | 94 | 1016.7 |
| 20260905021526 | 26 | 134 | 0.0 | 0.0 | 0.00 | 6.10 | 6.10 | 94 | 1016.6 |
| 20260905021332 | 26 | 134 | 0.0 | 0.0 | 0.00 | 6.10 | 6.10 | 94 | 1016.6 |
| 20260905020830 | 26 | 134 | 0.0 | 0.0 | 0.00 | 6.10 | 6.10 | 93 | 1016.7 |
| 20260905020328 | 27 | 134 | 0.0 | 0.0 | 0.00 | 6.10 | 6.10 | 93 | 1016.7 |
| 20260905020021 | 26 | 134 | 0.0 | 0.0 | 0.00 | 6.10 | 6.10 | 94 | 1016.6 |
| 20260905015826 | 27 | 134 | 0.0 | 0.0 | 0.00 | 6.10 | 6.10 | 93 | 1016.6 |
| 20260905015324 | 27 | 134 | 0.0 | 0.0 | 0.00 | 6.10 | 6.10 | 93 | 1016.5 |
| 20260905014821 | 27 | 134 | 0.0 | 0.0 | 0.00 | 6.10 | 6.10 | 93 | 1016.6 |
| 20260905014558 | 26 | 134 | 0.0 | 0.0 | 0.00 | 6.10 | 6.10 | 93 | 1016.5 |
| 20260905014317 | 27 | 134 | 0.0 | 0.0 | 0.00 | 6.10 | 6.10 | 93 | 1016.5 |
| 20260905013814 | 27 | 134 | 0.0 | 0.0 | 0.00 | 6.10 | 6.10 | 93 | 1016.5 |
| 20260905013332 | 27 | 134 | 0.0 | 0.0 | 0.00 | 6.10 | 6.10 | 93 | 1016.5 |
| 20260905013040 | 26 | 134 | 0.0 | 0.0 | 0.00 | 6.10 | 6.10 | 93 | 1016.4 |
| 20260905012849 | 27 | 133 | 0.0 | 0.0 | 0.00 | 6.10 | 6.10 | 93 | 1016.4 |
| 20260905012325 | 27 | 134 | 0.0 | 0.0 | 0.00 | 6.10 | 6.10 | 93 | 1016.3 |
| 20260905011841 | 27 | 134 | 0.0 | 0.0 | 0.00 | 6.10 | 6.10 | 93 | 1016.3 |
| 20260905011539 | 27 | 134 | 0.0 | 0.0 | 0.00 | 6.10 | 6.10 | 93 | 1016.2 |
| 20260905011317 | 27 | 134 | 0.0 | 0.0 | 0.00 | 6.10 | 6.10 | 93 | 1016.3 |
| 20260905010815 | 27 | 134 | 0.0 | 0.0 | 0.00 | 6.10 | 6.10 | 93 | 1016.3 |
| 20260905010334 | 27 | 134 | 0.0 | 0.0 | 0.00 | 6.10 | 6.10 | 93 | 1016.3 |
| 20260905010027 | 27 | 134 | 0.0 | 0.0 | 0.00 | 6.10 | 6.10 | 93 | 1016.1 |
| 20260905005831 | 27 | 134 | 0.0 | 0.0 | 0.00 | 6.10 | 6.10 | 93 | 1016.2 |
| 20260905005327 | 27 | 134 | 0.0 | 0.0 | 0.00 | 6.10 | 6.10 | 93 | 1016.1 |
| 20260905004825 | 27 | 134 | 0.0 | 0.0 | 0.00 | 6.10 | 6.10 | 93 | 1015.9 |
| 20260905004517 | 27 | 134 | 0.0 | 0.0 | 0.00 | 6.10 | 6.10 | 93 | 1015.7 |
| 20260905004320 | 27 | 134 | 0.0 | 0.0 | 0.00 | 6.10 | 6.10 | 93 | 1015.9 |
| 20260905003819 | 27 | 134 | 0.0 | 0.0 | 0.00 | 6.10 | 6.10 | 93 | 1015.8 |
| 20260905003317 | 27 | 134 | 0.0 | 0.0 | 0.00 | 6.10 | 6.10 | 93 | 1015.9 |
| 20260905003040 | 27 | 134 | 0.0 | 0.0 | 0.00 | 6.10 | 6.10 | 93 | 1015.8 |
| 20260905002834 | 27 | 134 | 0.0 | 0.0 | 0.00 | 6.10 | 6.10 | 92 | 1015.9 |